Weather History for Madisonville, KY

Change the Weather History Date:

Monday, February 17, 2014

  Actual Average (KOWB) Record (KOWB)
Temperature  
Mean Temperature 39 °F -  
Max Temperature 51 °F 47 °F 70 °F (1986)
Min Temperature 27 °F 28 °F -6 °F (1958)
Degree Days  
Heating Degree Days 26    
Moisture  
Dew Point 35 °F    
Average Humidity 87    
Maximum Humidity 100    
Minimum Humidity 67    
Precipitation  
Precipitation 0.17 in - - ()
Sea Level Pressure  
Sea Level Pressure 30.03 in    
Wind  
Wind Speed 7 mph (South)    
Max Wind Speed 23 mph    
Max Gust Speed 34 mph    
Visibility 8 miles    
Events Rain    
Averages and records for this station are not official NWS values.
T = Trace of Precipitation, MM = Missing Value Source: NWS Daily Summary

Daily Weather History Graph

Daily Weather History Graph

Search for Another Location

Airport:

Trip Planner

Search our weather history database for the weather conditions in past years. The results will help you decide how hot, cold, wet, or windy it might be!

Date:

Astronomy

Feb. 17, 2014 Rise Set
Actual Time 6:36 AM CST 5:31 PM CST
Civil Twilight 6:09 AM CST 5:58 PM CST
Nautical Twilight 5:39 AM CST 6:28 PM CST
Astronomical Twilight 5:08 AM CST 6:58 PM CST
Moon 8:20 PM CST (2/17) 7:40 AM CST (2/17)
Length of Visible Light 11h 48m
Length of Day
10h 55m
Waning Gibbous, 93% of the Moon is Illuminated
Feb 17
Waning Gibbous
Feb 22
Last Quarter
Mar 1
New
Mar 8
First Quarter
Mar 16
Full

Hourly Weather History & Observations

Time (CST) Temp. Windchill Dew Point Humidity Pressure Visibility Wind Dir Wind Speed Gust Speed Precip Events Conditions
12:15 AM 27.9 °F - 25.0 °F 89% 30.23 in 7.0 mi Calm Calm - N/A   Clear
12:35 AM 28.4 °F 23.3 °F 25.5 °F 89% 30.22 in 7.0 mi ENE 4.6 mph - N/A   Scattered Clouds
12:55 AM 28.4 °F 23.3 °F 25.3 °F 88% 30.21 in 7.0 mi ENE 4.6 mph - N/A   Scattered Clouds
1:15 AM 28.4 °F 24.6 °F 25.7 °F 90% 30.21 in 7.0 mi ENE 3.5 mph - N/A   Clear
1:35 AM 28.6 °F 24.8 °F 25.9 °F 90% 30.21 in 7.0 mi ENE 3.5 mph - N/A   Clear
1:55 AM 28.4 °F 24.6 °F 25.7 °F 90% 30.21 in 7.0 mi ENE 3.5 mph - N/A   Clear
2:15 AM 28.4 °F 23.3 °F 25.7 °F 90% 30.19 in 5.0 mi ENE 4.6 mph - N/A   Clear
2:35 AM 28.8 °F 23.7 °F 26.1 °F 90% 30.19 in 5.0 mi East 4.6 mph - N/A   Clear
2:55 AM 28.9 °F 22.8 °F 26.4 °F 90% 30.18 in 5.0 mi East 5.8 mph - N/A   Clear
3:15 AM 29.1 °F 25.4 °F 26.4 °F 90% 30.18 in 5.0 mi East 3.5 mph - N/A   Clear
3:35 AM 28.9 °F 25.2 °F 26.1 °F 89% 30.17 in 5.0 mi East 3.5 mph - N/A   Clear
3:55 AM 28.9 °F 22.8 °F 26.2 °F 90% 30.16 in 5.0 mi East 5.8 mph - N/A   Clear
4:15 AM 30.0 °F 26.5 °F 27.0 °F 88% 30.17 in 7.0 mi ESE 3.5 mph - N/A   Clear
4:35 AM 30.2 °F 23.4 °F 27.1 °F 88% 30.15 in 7.0 mi East 6.9 mph - N/A   Clear
4:55 AM 30.7 °F 24.9 °F 27.3 °F 87% 30.15 in 7.0 mi ESE 5.8 mph - N/A   Clear
5:15 AM 30.9 °F 25.2 °F 27.5 °F 87% 30.14 in 7.0 mi ESE 5.8 mph - N/A   Clear
5:35 AM 31.6 °F 26.0 °F 27.5 °F 85% 30.14 in 7.0 mi ESE 5.8 mph - N/A   Clear
5:55 AM 32.0 °F 24.8 °F 27.9 °F 85% 30.13 in 7.0 mi ESE 8.1 mph - N/A   Clear
6:15 AM 32.0 °F 24.2 °F 28.0 °F 85% 30.12 in 7.0 mi ESE 9.2 mph - N/A   Clear
6:35 AM 32.2 °F 25.8 °F 28.2 °F 85% 30.11 in 7.0 mi ESE 6.9 mph - N/A   Clear
6:55 AM 32.4 °F 25.3 °F 28.4 °F 85% 30.11 in 7.0 mi SE 8.1 mph - N/A   Clear
7:15 AM 32.4 °F 25.3 °F 28.4 °F 85% 30.10 in 7.0 mi SSE 8.1 mph - N/A   Clear
7:35 AM 32.9 °F 26.7 °F 28.8 °F 85% 30.09 in 7.0 mi SE 6.9 mph - N/A   Clear
7:55 AM 33.4 °F 27.3 °F 29.1 °F 84% 30.08 in 7.0 mi SE 6.9 mph - N/A   Clear
8:15 AM 34.3 °F 28.4 °F 29.3 °F 82% 30.07 in 7.0 mi SE 6.9 mph - N/A   Clear
8:35 AM 35.6 °F 30.7 °F 30.0 °F 80% 30.06 in 7.0 mi SE 5.8 mph - N/A   Mostly Cloudy
8:55 AM 36.5 °F 29.7 °F 30.6 °F 79% 30.02 in 10.0 mi SSE 9.2 mph - N/A   Overcast
9:15 AM 38.1 °F 31.7 °F 31.6 °F 77% 30.00 in 10.0 mi SSE 9.2 mph - N/A   Overcast
9:35 AM 39.4 °F 35.2 °F 32.0 °F 75% 30.01 in 10.0 mi South 5.8 mph - N/A   Overcast
9:55 AM 40.8 °F 36.2 °F 32.0 °F 71% 29.98 in 10.0 mi SSE 6.9 mph - N/A   Overcast
10:15 AM 41.5 °F 38.6 °F 32.5 °F 70% 29.98 in 10.0 mi SSE 4.6 mph - N/A   Overcast
10:35 AM 42.8 °F 39.3 °F 33.3 °F 69% 29.96 in 10.0 mi SSE 5.8 mph - N/A   Overcast
10:55 AM 44.6 °F 41.4 °F 34.2 °F 67% 29.93 in 10.0 mi SSE 5.8 mph - N/A   Overcast
11:15 AM 44.2 °F 38.8 °F 36.7 °F 75% 29.91 in 3.0 mi SSE 10.4 mph - 0.04 in Rain Heavy Rain
11:35 AM 44.4 °F 39.0 °F 39.2 °F 82% 29.88 in 10.0 mi South 10.4 mph - 0.04 in   Overcast
11:55 AM 44.8 °F 39.0 °F 39.2 °F 81% 29.85 in 10.0 mi South 11.5 mph 17.3 mph 0.04 in   Overcast
12:15 PM 45.7 °F 41.0 °F 40.3 °F 81% 29.83 in 10.0 mi South 9.2 mph - N/A   Overcast
12:35 PM 46.0 °F 41.4 °F 41.0 °F 83% 29.81 in 10.0 mi South 9.2 mph - N/A   Overcast
12:55 PM 47.3 °F - 41.9 °F 82% 29.78 in 10.0 mi SSW 10.4 mph - N/A   Overcast
1:15 PM 50.0 °F - 43.3 °F 78% 29.78 in 10.0 mi SSW 15.0 mph 19.6 mph N/A   Overcast
1:35 PM 51.8 °F - 44.8 °F 77% 29.75 in 10.0 mi SSW 16.1 mph 21.9 mph N/A   Overcast
1:55 PM 51.3 °F - 45.5 °F 81% 29.76 in 7.0 mi SSW 13.8 mph 18.4 mph 0.02 in Rain Rain
2:15 PM 50.4 °F - 47.1 °F 89% 29.77 in 5.0 mi SW 11.5 mph 17.3 mph 0.02 in Rain Light Rain
2:35 PM 47.3 °F - 47.3 °F 100% 29.80 in 3.0 mi West 11.5 mph - 0.06 in Rain Light Rain
2:55 PM 48.4 °F - 48.4 °F 100% 29.82 in 4.0 mi West 11.5 mph - 0.08 in Rain Light Rain
3:15 PM 48.7 °F - 48.7 °F 100% 29.86 in 5.0 mi West 19.6 mph 26.5 mph 0.01 in Rain Rain
3:35 PM 47.7 °F - 47.3 °F 99% 29.88 in 7.0 mi West 23.0 mph 31.1 mph 0.03 in Rain Light Rain
3:55 PM 47.5 °F - 45.7 °F 93% 29.89 in 10.0 mi West 20.7 mph 34.5 mph 0.03 in   Overcast
4:15 PM 46.8 °F - 44.2 °F 91% 29.92 in 7.0 mi West 16.1 mph 24.2 mph N/A   Scattered Clouds
4:35 PM 46.4 °F 39.2 °F 43.2 °F 88% 29.93 in 10.0 mi West 18.4 mph 25.3 mph N/A   Mostly Cloudy
4:55 PM 45.5 °F 38.9 °F 41.2 °F 85% 29.94 in 7.0 mi West 15.0 mph 19.6 mph N/A   Overcast
5:15 PM 44.8 °F 39.4 °F 40.6 °F 85% 29.95 in 7.0 mi West 10.4 mph - N/A   Mostly Cloudy
5:35 PM 44.2 °F 39.2 °F 40.5 °F 87% 29.96 in 7.0 mi West 9.2 mph - N/A   Scattered Clouds
5:55 PM 43.7 °F 38.6 °F 40.3 °F 88% 29.98 in 10.0 mi West 9.2 mph - N/A   Clear
6:15 PM 42.8 °F 37.5 °F 40.1 °F 90% 30.00 in 7.0 mi West 9.2 mph - N/A   Clear
6:35 PM 42.8 °F 37.5 °F 40.1 °F 90% 30.02 in 7.0 mi West 9.2 mph - N/A   Clear
6:55 PM 42.3 °F 37.3 °F 40.5 °F 93% 30.04 in 7.0 mi West 8.1 mph - N/A   Clear
7:15 PM 41.4 °F 37.6 °F 40.1 °F 95% 30.06 in 7.0 mi West 5.8 mph - N/A   Clear
7:35 PM 41.9 °F 37.5 °F 41.0 °F 97% 30.06 in 7.0 mi West 6.9 mph - N/A   Clear
7:55 PM 40.8 °F 37.8 °F 39.9 °F 97% 30.06 in 7.0 mi WSW 4.6 mph - N/A   Clear
8:15 PM 39.2 °F 35.0 °F 38.8 °F 99% 30.07 in 7.0 mi WSW 5.8 mph - N/A   Clear
8:35 PM 37.8 °F 32.5 °F 37.8 °F 100% 30.08 in 5.0 mi SW 6.9 mph - N/A   Clear
8:55 PM 38.8 °F 35.4 °F 38.8 °F 100% 30.08 in 5.0 mi SW 4.6 mph - N/A   Clear
9:15 PM 36.7 °F 31.2 °F 36.7 °F 100% 30.09 in 4.0 mi SW 6.9 mph - N/A   Clear
9:35 PM 37.9 °F 33.5 °F 37.9 °F 100% 30.09 in 7.0 mi SW 5.8 mph - N/A   Clear
9:55 PM 36.9 °F 31.4 °F 36.7 °F 99% 30.10 in 7.0 mi SW 6.9 mph - N/A   Clear
10:15 PM 38.1 °F 32.3 °F 37.4 °F 97% 30.10 in 10.0 mi WSW 8.1 mph - N/A   Clear
10:35 PM 38.8 °F 32.6 °F 35.1 °F 86% 30.11 in 10.0 mi WSW 9.2 mph - N/A   Clear
10:55 PM 39.0 °F 33.4 °F 34.3 °F 83% 30.11 in 10.0 mi WSW 8.1 mph - N/A   Clear
11:15 PM 39.6 °F 34.7 °F 34.7 °F 83% 30.11 in 10.0 mi West 6.9 mph - N/A   Clear
11:35 PM 39.6 °F 34.7 °F 33.6 °F 79% 30.11 in 10.0 mi WSW 6.9 mph - N/A   Clear
11:55 PM 39.6 °F 34.7 °F 32.7 °F 76% 30.12 in 10.0 mi West 6.9 mph - N/A   Clear